Salida, CO

6:56 AM MDT on September 24, 2017 (GMT -0600)
Salida

Weather History for KANK - February, 2013

Change the Weather History Date:

Tuesday, February 19, 2013

  Actual Average (KGUC) Record (KGUC)
Temperature  
Mean Temperature 26 °F -  
Max Temperature 42 °F 29 °F 44 °F (2007)
Min Temperature 10 °F 6 °F -14 °F (2008)
Degree Days  
Heating Degree Days 39    
Moisture  
Dew Point -4 °F    
Average Humidity 29    
Maximum Humidity 45    
Minimum Humidity 9    
Precipitation  
Precipitation 0.00 in - - ()
Sea Level Pressure  
Sea Level Pressure 29.99 in    
Wind  
Wind Speed 9 mph (WNW)    
Max Wind Speed 21 mph    
Max Gust Speed 29 mph    
Visibility 10 miles    
Events      
Averages and records for this station are not official NWS values.
T = Trace of Precipitation, MM = Missing Value Source: NWS Daily Summary

Daily Weather History Graph

Daily Weather History Graph

Search for Another Location

Airport or City:

Trip Planner

Search our weather history database for the weather conditions in past years. The results will help you decide how hot, cold, wet, or windy it might be!

Date:

Astronomy

Feb. 19, 2013 Rise Set
Actual Time 6:49 AM MST 5:46 PM MST
Civil Twilight 6:22 AM MST 6:13 PM MST
Nautical Twilight 5:51 AM MST 6:44 PM MST
Astronomical Twilight 5:21 AM MST 7:15 PM MST
Moon 12:22 PM MST (2/19) 2:21 AM MST (2/19)
Length of Visible Light 11h 51m
Length of Day
10h 57m
Waxing Gibbous, 68% of the Moon is Illuminated
Feb 19
Waxing Gibbous
Feb 25
Full
Mar 4
Last Quarter
Mar 11
New
Mar 19
First Quarter

Hourly Weather History & Observations

Time (MST) Temp. Windchill Dew Point Humidity Pressure Visibility Wind Dir Wind Speed Gust Speed Precip Events Conditions
12:15 AM 20.8 °F 9.0 °F -2.0 °F 37% 30.14 in 10.0 mi NNW 11.5 mph - N/A   Clear
12:35 AM 19.4 °F 8.6 °F -1.8 °F 39% 30.14 in 10.0 mi NNW 9.2 mph - N/A   Clear
12:55 AM 18.7 °F 6.3 °F -2.2 °F 40% 30.14 in 10.0 mi NNW 11.5 mph - N/A   Clear
1:15 AM 18.1 °F 3.9 °F -2.6 °F 40% 30.13 in 10.0 mi NNW 15.0 mph - N/A   Clear
1:35 AM 17.2 °F 2.7 °F -2.9 °F 41% 30.13 in 10.0 mi NNW 15.0 mph - N/A   Clear
1:55 AM 16.9 °F 4.8 °F -3.3 °F 41% 30.13 in 10.0 mi NNW 10.4 mph - N/A   Clear
2:15 AM 16.5 °F 6.9 °F -3.6 °F 41% 30.13 in 10.0 mi NNW 6.9 mph - N/A   Clear
2:35 AM 16.2 °F 3.9 °F -4.0 °F 41% 30.13 in 10.0 mi NNW 10.4 mph - N/A   Clear
2:55 AM 15.8 °F 4.2 °F -4.0 °F 41% 30.12 in 10.0 mi NNW 9.2 mph - N/A   Clear
3:15 AM 15.1 °F 2.5 °F -4.4 °F 42% 30.11 in 10.0 mi NNW 10.4 mph - N/A   Clear
3:35 AM 14.9 °F 6.1 °F -4.5 °F 42% 30.11 in 10.0 mi NNW 5.8 mph - N/A   Clear
3:55 AM 14.9 °F 5.0 °F -4.9 °F 41% 30.11 in 10.0 mi NNW 6.9 mph - N/A   Clear
4:15 AM 14.9 °F 5.0 °F -5.3 °F 41% 30.11 in 10.0 mi NW 6.9 mph - N/A   Clear
4:55 AM 13.5 °F 4.4 °F -5.8 °F 42% 30.11 in 10.0 mi NW 5.8 mph - N/A   Clear
5:15 AM 12.9 °F 0.7 °F -5.8 °F 43% 30.10 in 10.0 mi NW 9.2 mph - N/A   Clear
5:35 AM 12.2 °F 1.7 °F -6.2 °F 44% 30.11 in 10.0 mi WNW 6.9 mph - N/A   Clear
5:55 AM 11.7 °F 1.1 °F -6.3 °F 44% 30.10 in 10.0 mi NW 6.9 mph - N/A   Clear
6:15 AM 11.8 °F 3.9 °F -6.7 °F 43% 30.11 in 10.0 mi NW 4.6 mph - N/A   Clear
6:35 AM 11.3 °F 1.9 °F -6.7 °F 44% 30.11 in 10.0 mi NW 5.8 mph - N/A   Clear
6:55 AM 10.9 °F 0.2 °F -6.9 °F 45% 30.11 in 10.0 mi NW 6.9 mph - N/A   Clear
7:15 AM 11.7 °F 5.5 °F -6.7 °F 44% 30.11 in 10.0 mi West 3.5 mph - N/A   Clear
7:35 AM 12.2 °F 0.7 °F -6.9 °F 42% 30.11 in 10.0 mi NNW 8.1 mph - N/A   Clear
7:55 AM 13.6 °F 0.7 °F -6.7 °F 40% 30.10 in 10.0 mi NNW 10.4 mph - N/A   Clear
8:15 AM 14.9 °F 5.0 °F -6.5 °F 38% 30.11 in 10.0 mi NNW 6.9 mph - N/A   Clear
8:35 AM 17.2 °F 8.9 °F -6.2 °F 35% 30.10 in 10.0 mi NW 5.8 mph - N/A   Clear
8:55 AM 19.9 °F 10.1 °F -6.7 °F 31% 30.09 in 10.0 mi NNW 8.1 mph - N/A   Clear
9:15 AM 22.6 °F 12.6 °F -5.8 °F 29% 30.08 in 10.0 mi NW 9.2 mph - N/A   Clear
9:35 AM 24.6 °F 18.8 °F -4.2 °F 28% 30.07 in 10.0 mi NNW 4.6 mph - N/A   Clear
9:55 AM 27.3 °F 20.9 °F -4.4 °F 25% 30.06 in 10.0 mi NNW 5.8 mph - N/A   Clear
10:15 AM 30.0 °F 24.1 °F -4.5 °F 22% 30.04 in 10.0 mi North 5.8 mph - N/A   Clear
10:35 AM 32.0 °F 27.5 °F -3.8 °F 21% 30.04 in 10.0 mi North 4.6 mph - N/A   Clear
10:55 AM 36.1 °F 29.9 °F -4.4 °F 18% 30.02 in 10.0 mi WSW 8.1 mph - N/A   Clear
11:15 AM 38.3 °F 35.9 °F -9.8 °F 13% 30.01 in 10.0 mi East 3.5 mph - N/A   Clear
11:35 AM 37.8 °F - -9.4 °F 13% 30.00 in 10.0 mi Calm Calm - N/A   Clear
11:55 AM 40.6 °F 38.6 °F -10.7 °F 11% 29.98 in 10.0 mi East 3.5 mph - N/A   Clear
12:15 PM 42.3 °F 34.8 °F -13.9 °F 9% 29.97 in 10.0 mi SSE 15.0 mph 20.7 mph N/A   Clear
12:35 PM 40.5 °F 32.5 °F -14.8 °F 9% 29.95 in 10.0 mi South 15.0 mph 26.5 mph N/A   Clear
12:55 PM 42.8 °F 34.8 °F -13.0 °F 9% 29.94 in 10.0 mi South 17.3 mph 24.2 mph N/A   Clear
1:15 PM 42.8 °F 35.1 °F -11.4 °F 10% 29.92 in 10.0 mi South 16.1 mph 24.2 mph N/A   Clear
1:35 PM 42.1 °F 33.6 °F -10.8 °F 10% 29.91 in 10.0 mi South 18.4 mph 25.3 mph N/A   Clear
1:55 PM 40.5 °F 30.9 °F -10.5 °F 11% 29.91 in 10.0 mi South 20.7 mph 28.8 mph N/A   Clear
2:15 PM 40.1 °F 31.0 °F -12.3 °F 10% 29.90 in 10.0 mi South 18.4 mph 28.8 mph N/A   Clear
2:35 PM 39.6 °F 31.0 °F -9.4 °F 12% 29.90 in 10.0 mi South 16.1 mph 21.9 mph N/A   Clear
2:55 PM 39.6 °F 32.1 °F -7.4 °F 13% 29.90 in 10.0 mi SSE 12.7 mph 21.9 mph N/A   Clear
3:15 PM 39.4 °F 32.7 °F -4.5 °F 16% 29.89 in 10.0 mi SSE 10.4 mph 17.3 mph N/A   Clear
3:35 PM 39.7 °F 32.3 °F -2.7 °F 17% 29.89 in 10.0 mi South 12.7 mph - N/A   Clear
3:55 PM 40.1 °F 32.4 °F -2.4 °F 17% 29.88 in 10.0 mi South 13.8 mph - N/A   Clear
4:15 PM 40.1 °F 34.7 °F -1.5 °F 17% 29.88 in 10.0 mi SSE 8.1 mph - N/A   Clear
5:35 PM 37.6 °F - 0.1 °F 21% 29.87 in 10.0 mi Calm Calm - N/A   Clear
5:55 PM 37.4 °F 34.9 °F 0.1 °F 21% 29.87 in 10.0 mi SSW 3.5 mph - N/A   Clear
6:35 PM 36.9 °F 32.2 °F 0.5 °F 22% 29.86 in 10.0 mi SSW 5.8 mph - N/A   Clear
6:55 PM 36.1 °F - 0.5 °F 22% 29.86 in 10.0 mi Calm Calm - N/A   Clear
7:15 PM 35.1 °F 31.0 °F 1.4 °F 24% 29.86 in 10.0 mi East 4.6 mph - N/A   Clear
7:35 PM 33.8 °F 27.7 °F 1.9 °F 26% 29.85 in 10.0 mi ESE 6.9 mph - N/A   Clear
7:55 PM 32.9 °F 29.8 °F 3.7 °F 29% 29.85 in 10.0 mi South 3.5 mph - N/A   Scattered Clouds
8:15 PM 32.4 °F 27.9 °F 3.2 °F 29% 29.84 in 10.0 mi SE 4.6 mph - N/A   Scattered Clouds
8:35 PM 32.4 °F 29.1 °F 3.2 °F 29% 29.85 in 10.0 mi SE 3.5 mph - N/A   Clear
8:55 PM 31.8 °F 25.4 °F 2.8 °F 29% 29.84 in 10.0 mi ESE 6.9 mph - N/A   Clear
9:15 PM 31.3 °F 26.6 °F 2.8 °F 30% 29.84 in 10.0 mi SE 4.6 mph - N/A   Clear
9:35 PM 29.7 °F 24.7 °F 2.3 °F 31% 29.83 in 10.0 mi SSE 4.6 mph - N/A   Clear
9:55 PM 28.9 °F - 1.6 °F 31% 29.83 in 10.0 mi Calm Calm - N/A   Clear
10:15 PM 27.3 °F 23.4 °F 1.9 °F 34% 29.82 in 10.0 mi SE 3.5 mph - N/A   Clear
10:35 PM 28.9 °F 21.9 °F 3.2 °F 33% 29.82 in 10.0 mi SE 6.9 mph - N/A   Clear
11:15 PM 28.4 °F 20.4 °F 4.6 °F 36% 29.82 in 10.0 mi SSE 8.1 mph - N/A   Clear
11:35 PM 27.7 °F 20.4 °F 5.0 °F 38% 29.82 in 10.0 mi SSE 6.9 mph - N/A   Clear
11:55 PM 27.3 °F 19.9 °F 5.4 °F 39% 29.82 in 10.0 mi SE 6.9 mph - N/A   Clear